Location: Banska Bystrica
(48.7330°N, 19.1500°E)
Time: 08:25:33
(UTC+02:00)

ISS - Pass Details

Date: 31 March 2019
Orbit: 408 x 410 km, 51.6° (Epoch: 21 April)

Event Time Altitude Azimuth Distance (km) Brightness Sun altitude
Rises 21:01:06 0° 288° (WNW) 2,338 1.6 -17.8°
Reaches altitude 10° 21:03:12 10° 291° (WNW) 1,475 0.3 -18.1°
Maximum altitude 21:06:30 67° 15° (NNE) 448 -3.7 -18.6°
Enters shadow 21:06:55 58° 61° (ENE) 481 -3.7 -18.6°
